Regional Weather Roundup
Issued by NWS

Home | Current Version | Previous Version | Graphics & Text | Print | Product List | Glossary On
Versions: 1 2 3 4 5 6 7 8 9 10 11 12 13 14 15 16 17 18 19 20 21 22 23 24 25 26 27 28 29 30 31 32 33 34 35 36 37 38 39 40 41 42 43 44 45 46 47 48 49 50
925
ASUS43 KMPX 291910
RWRMN
WEATHER ROUNDUP FOR MINNESOTA
NATIONAL WEATHER SERVICE TWIN CITIES/CHANHASSEN MN
200 PM CDT FRI APR 29 2016


NOTE: "FAIR" INDICATES FEW OR NO CLOUDS BELOW 12,000 FEET WITH NO
SIGNIFICANT WEATHER AND/OR OBSTRUCTIONS TO VISIBILITY. N/A MEANS
CURRENT SKY AND/OR WEATHER CONDITIONS ARE NOT AVAILABLE.

MNZ060>063-068>070-292000-
   Twin Cities Metro

CITY           SKY/WX    TMP DP  RH WIND       PRES   REMARKS
TWIN CITIES    MOSUNNY   56  34  43 NE8       30.13F
ST PAUL        SUNNY     55  36  48 NE13      30.14F
CRYSTAL        SUNNY     56  33  42 E9        30.12
BLAINE         SUNNY     57  34  41 E13       30.13F
EDEN PRAIRIE   SUNNY     56  34  43 E10       30.11F
SOUTH ST PAUL  SUNNY     55  35  47 E7        30.13F
LAKE ELMO      FAIR      55  36  47 NE7       30.13F
$$
MNZ001>005-007-008-013>017-022>024-027-028-292000-
   Northwest Minnesota

CITY           SKY/WX    TMP DP  RH WIND       PRES   REMARKS
BEMIDJI        SUNNY     55  32  41 N9        30.14F
HALLOCK        SUNNY     61  27  27 NE7       30.20F
ROSEAU         SUNNY     55  36  47 E12       30.22F
WARROAD        SUNNY     52  34  50 NE9       30.24F
THIEF RVR FALL SUNNY     57  30  35 NE15      30.20F
CROOKSTON      SUNNY     59  30  33 E15G21    30.17F
FOSSTON        SUNNY     57  32  38 NE17G23   30.16F
DETROIT LAKES  SUNNY     59  32  36 NE8       30.11F
MOORHEAD       SUNNY     61  30  31 NE16G22   30.11F
PARK RAPIDS    SUNNY     59  29  31 MISG      30.11F
MAHNOMEN       FAIR      58  33  38 NE18      30.12F
$$
MNZ006-009>011-018-025>026-292000-
   North Central Minnesota

CITY           SKY/WX    TMP DP  RH WIND       PRES   REMARKS
BAUDETTE       PTSUNNY   57  30  35 NE7       30.20F
FLAG ISLAND    SUNNY     48  30  49 N13       30.22S
INTL FALLS     SUNNY     53  30  41 NE9G20    30.20F
WASKISH        SUNNY     57  34  41 NE13G18   30.18S
BIG FORK       MOSUNNY   55  30  38 CALM      30.16S
LONGVILLE      SUNNY     57  30  35 N6        30.14F
GRAND RAPIDS   MOSUNNY   55  28  35 NE10      30.17F
CRANE LAKE     PTSUNNY   50  30  46 NE6       30.22S
ORR            PTSUNNY   55  25  30 CALM      30.16S
COOK           PTSUNNY   52  30  43 NE3       30.19S
WALKER         FAIR      55  30  38 E9        30.14F
$$
MNZ012-019>021-037-292000-
   Northeast Minnesota

CITY           SKY/WX    TMP DP  RH WIND       PRES   REMARKS
DULUTH         MOSUNNY   51  30  44 SE15      30.17S
ELY            CLOUDY    48  28  46 N7        30.19S
HIBBING        MOSUNNY   52  28  39 CALM      30.16F
EVELETH        PTSUNNY   52  28  40 SE6       30.18S
DULUTH HARBOR  SUNNY     43  34  70 NE5       30.21S
TWO HARBORS    MOSUNNY   52  37  58 E10       30.17S
SILVER BAY     CLOUDY    50  30  46 E7        30.18R
GRAND MARAIS     N/A     43  31  62 CALM      30.21S
G MARAIS ARPRT CLOUDY    46  28  49 E3        30.18R
$$
MNZ029>031-032-039>041-046>048-054>057-064-292000-
   West Central Minnesota

CITY           SKY/WX    TMP DP  RH WIND       PRES   REMARKS
FERGUS FALLS   MOSUNNY   57  36  44 E3G17     30.11R
WHEATON        SUNNY     59  37  44 E9        30.13F
MORRIS         SUNNY     57  37  47 SE5       30.12F
ALEXANDRIA     PTSUNNY   58  34  40 N8G16     30.12F
ELBOW LAKE     FAIR      55  35  46 E10       30.12F
WADENA         SUNNY     57  34  41 E7        30.11F
GLENWOOD       MOSUNNY   55  37  50 N7        30.13F
APPLETON       PTSUNNY   57  36  44 E9G17     30.13S
BENSON         PTSUNNY   55  34  44 E8        30.13F
ORTONVILLE     MOSUNNY   55  36  47 E5        30.13F
MADISON        MOSUNNY   54  39  58 E8        30.14S
WILLMAR        FAIR      55  39  54 NE7       30.14F
$$
MNZ033>034-036-042>043-049>051-058-059-292000-
   Central Minnesota

CITY           SKY/WX    TMP DP  RH WIND       PRES   REMARKS
ST CLOUD       SUNNY     56  32  40 VRB6G21   30.11F
SAUK CENTRE    FAIR      56  34  44 NE8       30.11F
PAYNESVILLE    CLOUDY    54  35  47 NE7       30.13F
AITKIN         SUNNY     57  25  28 E9        30.13F
PINE RIVER     SUNNY     57  34  41 N3        30.15F
BRAINERD       SUNNY     57  30  35 MISG      30.13F
STAPLES        SUNNY     57  28  33 N7        30.11F
LONG PRAIRIE   FAIR      55  32  41 NE8       30.12S
LITTLE FALLS   SUNNY     55  30  38 E10       30.13F
LITCHFIELD     SUNNY     55  36  47 NE13G21   30.14R
BUFFALO        SUNNY     55  33  43 NE10G20   30.13F
MAPLE LAKE     MOSUNNY   56  39  53 N9        30.14F
HUTCHINSON     MOSUNNY   56  41  57 NE10G22   30.14S
$$
MNZ037-044-045-052-053-292000-
   East Central Minnesota

CITY           SKY/WX    TMP DP  RH WIND       PRES   REMARKS
PRINCETON      SUNNY     57  34  41 NE12G21   30.12F
MORA           SUNNY     55  30  38 NE3       30.15F
CAMBRIDGE      SUNNY     57  37  47 NE10      30.10F
RUSH CITY      SUNNY     57  31  37 NE5       30.14S
MOOSE LAKE     SUNNY     55  32  41 E6        30.14F
HINCKLEY       FAIR      57  36  44 NE13G18   30.13F
CLOQUET        SUNNY     54  27  35 SE12      30.16F
MCGREGOR       MOSUNNY   55  32  41 NE6       30.15F
$$
MNZ071>073-080-081-089-090-097-098-292000-
   Southwest Minnesota

CITY           SKY/WX    TMP DP  RH WIND       PRES   REMARKS
MONTEVIDEO     PTSUNNY   57  39  51 E13G18    30.15F
GRANITE FALLS  PTSUNNY   56  41  57 E9G20     30.15S
CANBY          CLOUDY    58  43  57 E10G17    30.15S
MARSHALL       CLOUDY    52  40  63 NE12      30.13F
REDWOOD FALLS  PTSUNNY   54  37  52 NE9       30.12F
OLIVIA         PTSUNNY   55  39  54 E9        30.13S
PIPESTONE      CLOUDY    48  37  66 E8G16     30.11F
WINDOM         MOSUNNY   52  37  58 NE12G22   30.11F
WORTHINGTON    CLOUDY    48  38  68 E15G22    30.11F
JACKSON        PTSUNNY   48  36  61 E13       30.12S
TRACY          CLOUDY    52  42  66 NE12G18   30.12F
SLAYTON        CLOUDY    47  40  74 NE8       30.12F
$$
MNZ065>067-074>077-082>085-091>093-292000-
   South Central Minnesota

CITY           SKY/WX    TMP DP  RH WIND       PRES   REMARKS
MANKATO        MOSUNNY   54  37  54 NE10      30.12F
NEW ULM        MOSUNNY   54  39  58 E10       30.11F
ST JAMES       PTSUNNY   46  36  66 NE9       30.12F
FAIRMONT       CLOUDY    50  37  62 E12       30.11F
GLENCOE        SUNNY     55  40  58 E9G18     30.13S
FARIBAULT      MOSUNNY   54  37  54 E5        30.13F
OWATONNA       PTSUNNY   54  37  54 N3        30.11F
WASECA         MOSUNNY   52  37  58 NE10G17   30.12F
ALBERT LEA     CLOUDY    48  39  71 E9        30.11F
$$
MNZ078>079-086>088-094>096-292000-
   Southeast Minnesota

CITY           SKY/WX    TMP DP  RH WIND       PRES   REMARKS
ROCHESTER      CLOUDY    47  39  74 E13       30.14F
RED WING       PTSUNNY   55  37  50 S10       30.12S
STANTON        MOSUNNY   55  38  52 NE8       30.12F
DODGE CENTER   CLOUDY    52  41  66 E13       30.12F
WINONA         CLOUDY    48  37  66 E3        30.14F
AUSTIN         CLOUDY    46  37  71 NE9       30.12F
PRESTON        CLOUDY    47  38  72 N12       30.11F
$$
ABBREVIATIONS USED IN REMARKS
   TC - TEMPERATURES IN CELSIUS
  WCI - WIND CHILL INDEX
   HX - HEAT INDEX
  VSB - VISIBILITY
$$




USA.gov is the U.S. government's official web portal to all federal, state and local government web resources and services.